RH
49 47 51 56 59 62 67 63 53 67 93 94 53 66 76 76 71 85 68 52 49 53 50 43 37 33 33 34 36 37 37 35 34 35 32 32 34 36 38 41 42 44 44
50 50 51 59 63 65 67 68 56 68 68 90 85 69 75 98 99 76 78 77 56 60 61 54 50 52 53 46 41 40 41 41 41 42 39 36 35 35 38 42 42 44 48
49 48 49 50 52 53 53 64 55 41 100 98 100 100 79 63 59 73 97 90 66 68 70 61 52 48 52 54 55 53 56 55 49 49 50 47 43 41 40 42 44 47 48
38 40 35 33 43 45 52 46 41 46 62 77 96 98 96 96 92 78 71 86 96 89 85 75 73 66 72 69 62 61 64 67 67 69 66 59 53 47 44 42 44 46 47
32 26 24 22 22 20 28 32 36 36 52 62 74 96 100 100 96 96 98 94 93 100 99 92 96 87 92 99 99 91 78 80 77 70 74 84 68 59 53 51 54 53 57
21 19 18 17 16 17 28 34 42 42 39 44 46 52 48 70 100 100 100 100 100 78 100 100 100 100 100 100 97 92 97 97 93 84 83 79 83 80 74 67 61 58 61
21 19 18 17 16 18 20 20 20 21 23 22 19 21 35 82 100 100 100 100 100 80 52 88 99 92 91 82 88 100 100 99 97 97 97 100 100 82 87 90 78 73 74
22 21 22 21 19 20 21 22 21 22 24 25 25 26 41 62 100 100 97 98 94 84 81 67 66 71 58 38 37 75 97 100 100 100 97 92 97 100 100 98 91 83 82
31 28 26 27 28 27 27 26 27 28 28 26 29 28 30 41 40 87 72 67 51 44 46 56 54 47 32 24 34 42 47 63 92 100 99 96 87 86 91 96 94 95 94
39 37 34 34 34 34 34 33 34 32 30 28 29 34 33 34 33 40 41 45 61 70 82 78 80 69 56 45 37 44 46 55 56 65 76 89 98 85 75 85 94 83 79
45 44 42 40 40 39 39 40 38 38 38 36 35 35 35 40 44 42 43 43 46 66 80 80 82 92 99 84 82 70 74 66 54 56 76 93 100 98 84 78 75 82 87
49 51 50 48 45 45 46 46 47 47 44 45 44 42 43 42 42 44 48 48 47 50 55 53 61 74 88 86 79 72 77 98 90 70 59 47 51 83 91 90 88 81 71
52 52 53 55 55 54 51 49 50 52 52 52 53 54 52 52 52 52 52 52 57 58 63 66 67 63 73 69 67 67 64 66 69 77 75 68 64 57 47 50 62 62 60
52 58 54 53 53 52 54 56 55 52 51 51 52 55 59 58 58 61 60 57 58 60 59 60 60 61 58 56 59 72 67 64 60 62 61 64 69 61 53 54 54 52 68
55 54 60 62 58 56 56 56 54 52 51 53 54 53 55 58 60 60 62 64 64 67 69 70 67 66 68 72 69 64 73 76 78 69 59 59 55 55 56 58 64 64 58
44 48 54 60 68 66 58 54 51 50 50 50 48 51 55 60 59 58 57 57 58 61 58 60 62 63 72 77 78 73 76 84 92 79 69 74 69 71 65 53 64 73 85
48 41 40 45 56 55 54 57 57 56 50 46 45 41 41 42 43 45 48 50 53 53 55 55 55 51 49 54 55 65 67 82 96 100 91 81 75 67 87 79 78 70 65
55 45 39 40 41 50 57 57 49 45 47 58 62 54 47 50 43 41 42 45 51 50 48 48 50 52 54 55 58 59 59 63 73 89 100 98 79 79 71 74 83 87 83
79 76 72 68 60 59 64 67 67 70 75 79 78 72 60 56 48 49 53 49 39 30 24 25 31 32 32 35 40 44 52 56 59 71 89 99 96 94 86 84 78 73 72
73 76 72 72 76 77 74 60 50 53 55 54 56 52 42 30 22 19 18 17 16 14 14 13 13 13 11 11 15 18 24 34 43 51 53 64 92 100 100 99 96 93 95
26 30 28 29 26 24 26 22 17 18 18 17 16 16 15 16 17 19 18 16 14 14 13 13 13 13 13 11 10 11 14 18 27 34 40 52 57 68 82 83 90 98 100
23 22 18 16 15 17 16 16 17 20 18 18 18 18 18 16 14 16 16 14 12 12 12 12 12 11 10 9 9 9 10 10 10 12 16 22 31 41 51 65 69 67 72
26 28 30 32 34 32 31 30 30 29 26 23 20 17 15 14 13 12 11 12 10 10 11 11 12 12 14 13 12 11 10 12 11 12 12 11 13 19 27 38 46 53 62
46 45 44 43 43 44 41 35 32 24 18 18 20 20 18 17 15 16 17 20 22 21 22 22 23 24 22 21 17 16 14 13 13 13 13 11 10 9 10 10 11 21 32
42 42 42 43 43 41 34 31 30 29 28 27 23 21 22 23 22 20 21 20 20 20 21 24 27 28 26 25 26 26 22 21 18 14 13 12 10 10 9 8 9 9 11
40 39 36 34 33 36 38 35 31 29 26 23 20 18 16 14 13 13 13 13 14 14 14 14 14 15 18 21 21 22 22 20 19 17 16 16 12 12 7 10 11 9 10
Wind_Speed
37 37 38 37 36 35 35 36 34 31 27 24 22 21 21 21 22 22 23 21 21 20 17 16 14 14 15 15 15 15 16 17 17 16 17 16 16 16 15 15 14 13 13
41 41 40 41 42 41 40 38 37 36 30 26 25 26 25 24 24 24 24 26 26 24 22 21 20 21 22 22 21 21 22 23 23 22 22 20 19 19 19 20 20 18 16
44 44 45 47 44 43 42 43 38 36 32 27 27 25 26 29 30 27 27 27 28 29 28 28 29 28 27 26 26 28 28 27 27 27 25 27 27 24 23 22 22 21 20
43 45 48 47 46 46 43 40 37 32 33 32 30 30 31 30 31 32 33 30 32 33 34 33 33 33 33 32 32 33 33 32 32 32 30 30 30 30 28 26 26 26 25
45 46 42 40 41 39 36 35 31 32 33 36 36 36 35 35 34 35 35 35 35 36 37 37 38 38 38 36 36 39 39 38 36 35 35 33 32 32 32 30 30 29 29
40 36 37 34 33 33 28 26 29 33 36 37 40 37 33 33 34 36 38 41 41 40 41 40 39 38 37 41 44 42 42 42 40 38 38 36 35 34 35 34 32 32 31
34 32 31 28 28 26 24 23 25 26 27 29 30 29 29 27 27 27 31 35 38 38 41 43 43 42 43 47 48 47 46 45 43 41 39 39 41 39 38 38 37 36 35
34 31 30 29 28 25 23 23 22 22 22 23 24 26 24 24 22 23 23 23 23 25 28 31 37 41 40 42 45 47 49 47 46 45 43 41 42 43 43 41 41 40 39
35 35 34 31 29 29 27 27 26 27 27 26 25 26 25 24 26 26 25 25 25 25 25 26 29 32 34 35 34 38 42 46 47 47 45 45 44 43 44 44 43 44 44
38 38 37 36 35 35 35 34 33 31 31 30 30 29 30 30 28 30 31 30 30 29 29 29 30 32 34 34 32 28 31 36 41 44 47 46 47 46 46 47 47 46 47
43 41 41 41 41 40 40 40 39 39 38 36 36 36 35 34 35 36 36 36 36 36 35 36 35 35 35 35 35 34 33 32 33 38 42 42 43 46 48 48 49 49 48
48 46 45 45 45 45 45 45 44 44 45 45 44 43 44 43 42 42 42 43 42 42 43 42 42 41 39 39 39 39 39 39 39 37 36 38 41 44 46 48 49 49 48
55 53 52 51 50 50 50 50 50 50 49 50 50 51 51 52 52 51 50 49 49 49 51 51 50 49 48 46 45 45 45 44 45 44 42 42 39 38 40 43 44 45 46
58 60 60 60 59 59 58 56 55 56 56 56 57 58 58 58 58 58 59 59 58 58 58 57 57 57 56 56 55 55 55 53 52 49 48 46 44 43 43 42 41 42 42
65 64 63 65 65 65 65 64 65 64 65 65 65 64 64 66 66 66 67 68 68 69 68 67 66 65 64 64 62 62 63 63 60 57 57 56 55 52 50 49 48 46 44
67 67 68 67 66 67 68 68 67 67 69 69 69 69 70 71 72 73 74 74 74 74 74 72 73 72 73 73 73 72 71 70 70 68 66 65 64 63 61 54 50 51 50
68 69 70 71 71 71 71 72 71 73 73 73 71 71 70 72 73 74 75 75 77 78 79 80 80 79 77 78 76 76 77 77 77 78 76 72 69 66 65 61 60 59 56
68 67 67 67 69 72 75 75 73 72 72 73 75 77 78 77 78 78 79 80 82 83 83 84 85 86 85 85 84 84 82 81 80 80 80 79 77 74 71 69 68 65 63
70 71 70 71 70 71 73 74 74 76 77 77 80 82 84 85 84 83 84 86 87 88 88 87 89 90 90 91 91 91 91 88 85 84 84 84 83 82 80 76 75 73 70
69 70 71 72 72 72 74 75 78 80 81 82 84 85 85 82 80 79 80 82 83 83 83 85 86 87 87 88 90 90 90 90 91 92 91 89 87 86 87 85 84 82 81
63 66 69 70 71 73 74 76 76 74 74 76 76 76 77 78 79 79 79 82 85 86 87 89 89 89 90 90 88 89 89 90 91 93 94 94 93 93 94 93 91 89 87
68 69 71 72 73 73 72 74 76 78 80 81 80 81 81 81 82 84 85 88 89 89 90 91 92 94 93 94 93 90 89 89 92 95 96 98 99 99 97 97 96 94 93
74 75 76 78 79 80 81 82 83 84 86 86 85 85 83 83 86 89 91 91 91 90 92 93 91 91 91 93 95 95 93 93 95 95 96 96 98 98 99 102 102 103 100
81 82 84 84 85 87 87 86 86 86 86 85 85 84 84 86 87 85 84 82 81 81 81 83 85 85 87 87 88 90 92 92 94 95 98 98 99 99 100 100 98 100 102
81 82 83 84 84 84 82 80 78 74 72 75 77 78 78 80 82 82 83 83 83 82 81 82 84 85 87 87 87 88 89 89 91 91 90 93 96 99 101 103 105 101 100
74 74 73 70 66 62 62 63 66 70 73 76 79 79 78 78 77 76 75 76 77 76 75 76 78 81 84 85 85 85 88 88 90 90 90 90 94 99 95 98 103 103 104
Wind_Direction
277 278 280 283 286 289 289 293 288 282 277 273 265 265 270 273 272 273 273 272 272 276 277 275 275 275 275 279 281 281 284 289 289 287 284 282 279 273 269 268 271 270 268
274 275 277 282 283 285 286 287 286 286 276 270 269 265 264 269 271 266 268 270 270 269 274 274 274 281 284 284 281 281 286 290 287 287 288 284 276 272 272 271 272 271 269
272 275 275 277 279 282 283 281 282 280 277 269 270 268 269 269 268 268 267 263 268 269 273 276 278 279 281 280 282 285 288 287 285 287 287 284 282 281 276 272 270 268 267
274 274 278 279 278 281 280 276 275 266 267 267 267 269 272 271 269 267 266 267 266 266 269 273 276 276 279 280 280 281 285 287 285 285 286 286 282 280 286 282 278 274 273
277 278 278 279 279 276 274 270 264 260 264 268 269 272 275 275 269 268 269 265 267 270 266 267 271 271 271 275 278 280 280 282 285 284 283 281 281 277 278 280 281 280 278
277 278 277 276 274 274 270 264 264 263 264 264 271 276 277 276 267 266 266 265 267 267 264 267 269 269 271 277 279 276 275 277 279 282 282 282 279 278 277 278 279 280 279
274 273 272 273 274 269 265 264 264 264 263 264 268 275 281 279 273 273 276 272 268 269 266 262 265 267 271 276 275 273 274 274 274 275 277 276 280 279 278 277 280 280 281
271 271 270 275 274 270 269 266 262 260 262 264 269 273 274 278 276 273 274 275 273 273 273 272 270 272 273 277 274 269 268 269 270 271 272 273 272 274 276 276 276 277 278
271 271 271 274 275 273 272 271 267 265 265 265 267 271 271 271 270 270 276 276 275 274 274 273 273 275 277 281 281 272 269 266 266 268 270 271 272 269 272 274 275 276 276
266 267 269 271 273 272 273 274 273 270 268 268 266 266 268 271 270 267 272 276 277 274 274 272 273 276 278 281 282 285 277 270 268 268 268 270 269 269 269 270 271 273 274
263 263 265 267 270 272 271 272 274 275 275 272 271 272 271 270 271 272 273 275 275 276 276 276 275 275 277 279 281 281 282 281 278 272 269 270 270 268 269 269 271 273 274
261 261 262 265 267 270 271 273 275 276 278 278 278 278 275 274 274 273 273 274 274 275 276 274 275 275 272 275 276 278 278 278 279 277 274 273 270 269 270 271 271 272 273
260 260 260 261 264 266 268 269 270 272 273 275 277 277 278 278 278 277 275 274 274 275 276 277 276 275 275 274 273 274 272 274 276 275 276 275 273 273 273 273 272 272 272
261 261 261 261 262 262 263 263 264 266 267 269 271 273 275 275 276 277 278 279 277 276 275 275 276 276 274 274 274 275 274 274 270 270 272 273 273 274 275 276 274 272 273
263 265 265 265 266 266 268 268 267 267 267 267 268 269 271 272 271 271 272 273 273 273 273 273 272 272 274 275 273 273 273 274 274 269 270 273 274 272 274 274 275 275 275
264 265 266 266 267 268 268 269 271 271 271 270 270 270 271 271 272 272 272 272 272 272 272 273 274 273 273 273 273 272 271 271 273 273 272 270 272 274 275 269 270 274 277
267 267 268 268 267 269 271 272 274 274 273 273 272 273 274 273 273 272 272 273 272 272 270 270 272 272 272 271 270 270 269 268 270 271 271 270 269 269 270 271 269 269 269
270 271 272 274 274 274 274 276 276 276 278 276 275 274 276 276 274 273 273 273 273 272 271 270 269 269 269 269 268 268 268 267 267 267 267 268 269 269 269 269 268 267 266
272 274 274 275 276 275 274 275 275 276 276 276 275 276 276 277 275 274 273 274 274 273 272 270 269 268 267 267 266 266 265 265 265 265 264 264 265 267 266 266 267 266 267
273 275 276 276 276 275 274 274 274 274 274 273 273 274 274 272 272 271 269 268 269 270 270 269 269 268 267 267 266 265 264 263 263 264 263 262 261 261 263 263 264 265 266
272 272 272 271 272 273 272 273 275 275 275 274 274 272 271 269 269 270 269 268 268 268 268 268 268 267 268 268 266 265 265 266 264 262 261 260 259 259 259 261 262 262 263
272 273 273 274 275 276 277 276 276 277 276 274 274 273 271 270 272 272 270 268 269 269 269 269 270 270 269 270 269 267 265 265 264 263 264 263 261 259 259 260 260 259 260
279 280 281 281 281 280 280 281 280 279 279 280 280 278 276 273 272 272 273 272 270 270 271 271 270 269 269 269 268 266 265 264 265 264 264 265 264 262 261 260 260 261 259
281 281 281 282 282 282 282 282 282 281 279 278 278 277 276 275 275 276 275 275 273 272 270 270 270 270 270 270 269 267 266 265 264 263 263 263 264 263 262 261 258 256 257
280 281 281 282 282 281 281 282 283 283 282 281 279 279 278 278 278 279 278 277 275 273 272 271 270 269 269 269 269 269 269 267 265 264 263 265 263 262 260 259 259 256 254
281 282 283 284 285 286 285 285 284 284 284 285 285 285 284 283 281 279 277 276 274 273 272 271 270 269 268 267 266 266 266 268 268 267 265 264 263 264 265 262 258 255 253